Home   Weather   Denizli   Past weeks
Flag for Turkey

Past Weather in Denizli, Turkey — Yesterday and Last 2 Weeks

Now
44 °F

Passing clouds.


Feels Like: 44 °F
Forecast: 57 / 44 °F
Wind: 2 mph from West

Location: Denizli

Current Time: Jan 23, 2019 at 6:37:16 am

Latest Report: Jan 23, 2019 at 3:00 am


Visibility: 13 mi

Pressure: 29.91 "Hg

Humidity: 87%

Dew Point: 40 °F

Location of DenizliLocation

Past Weather in Denizli — Graph

°F

Denizli Temperature Yesterday

Maximum temperature yesterday: 53 °F (at 4:00 pm)
Minimum temperature yesterday: 42 °F (at 9:00 am)
Average temperature yesterday: 48 °F

High & Low Weather Summary for the Past Weeks

 TemperatureHumidityPressure
High58 °F (Jan 11, 2:00 pm)99% (Jan 21, 9:00 pm)30.22 "Hg (Jan 21, 9:00 pm)
Low24 °F (Jan 9, 8:00 am)43% (Jan 12, 3:00 pm)29.15 "Hg (Jan 15, 3:00 pm)
Average44 °F72%29.91 "Hg
* Reported Jan 8 3:00 am — Jan 23 3:00 am, Denizli. Weather by CustomWeather, © 2019

Note: Actual official high and low records may vary slightly from our data, if they occured in-between our weather recording intervals... More about our weather records

Advertising

Denizli Weather History for the Previous 24 Hours

Scroll right to see more
 ConditionsComfort  
Time TempWeatherWind HumidityBarometerVisibility
3:00 am
Wed, Jan 23
44 °FPassing clouds.2 mph87%29.91 "Hg12 mi
12:00 am45 °FPassing clouds.1 mph87%29.93 "Hg12 mi
9:00 pm
Tue, Jan 22
49 °FPassing clouds.2 mph82%29.94 "Hg12 mi
8:00 pm49 °FOvercast.1 mph82%29.94 "Hg9 mi
7:00 pm50 °FSprinkles. Overcast.2 mph85%29.94 "Hg6 mi
6:00 pm50 °FPartly sunny.1 mph80%29.93 "Hg12 mi
5:00 pm52 °FOvercast.1 mph78%29.94 "Hg12 mi
4:00 pm53 °FOvercast.2 mph75%29.93 "Hg9 mi
3:00 pm51 °FFog.1 mph80%29.95 "Hg5 mi
2:00 pm50 °FFog.1 mph82%29.96 "Hg5 mi
1:00 pm50 °FOvercast.3 mph82%29.98 "Hg12 mi
12:00 pm47 °FPartly sunny.1 mph88%30.01 "Hg9 mi
11:00 am46 °FFog.1 mph93%30.00 "Hg4 mi
10:00 am44 °FScattered clouds.1 mph95%30.00 "Hg12 mi
9:00 am42 °FScattered clouds.No wind95%29.99 "Hg12 mi
6:00 am45 °FOvercast.1 mph99%29.98 "Hg12 mi
Weather by CustomWeather, © 2019

See weather overview